Location: Pensacola
(30.4142°N, 87.2155°W)
Time: 16:35:59
(UTC-05:00)

RS-15 - Visible Passes

Search period start: 04 June 2023 00:00
Search period end: 14 June 2023 00:00
Orbit: 1886 x 2159 km, 64.8° (Epoch: 04 June)

Date Brightness Start Highest point End Pass type
(mag) Time Alt. Az. Time Alt. Az. Time Alt. Az.
04 Jun 9.6 02:40:29 10° SSE 02:49:02 23° E 02:57:34 10° NE visible
04 Jun 8.2 04:47:51 10° SSW 05:00:09 81° WNW 05:12:30 10° NNE visible
05 Jun 9.8 02:07:49 10° SE 02:13:31 15° E 02:19:12 10° ENE visible
05 Jun 8.3 04:13:07 14° SSW 04:24:08 80° ESE 04:36:25 10° NNE visible
06 Jun 8.5 03:38:50 19° S 03:48:13 62° ESE 04:00:11 10° NE visible
07 Jun 8.8 03:04:30 22° SSE 03:12:24 46° ESE 03:23:45 10° NE visible
07 Jun 8.6 05:13:06 10° SW 05:24:45 47° NW 05:36:26 10° NNE visible
08 Jun 9.1 02:30:07 21° SSE 02:36:41 34° ESE 02:47:03 10° NE visible
08 Jun 8.4 04:37:54 15° SW 04:48:26 61° WNW 05:00:34 10° NNE visible
09 Jun 9.4 01:55:41 18° SE 02:01:04 24° ESE 02:09:53 10° NE visible
09 Jun 8.2 04:03:28 23° SSW 04:12:16 78° WNW 04:24:35 10° NNE visible
10 Jun 9.7 01:21:13 13° ESE 01:25:32 16° E 01:31:46 10° ENE visible
10 Jun 8.2 03:28:59 31° SSW 03:36:13 83° ESE 03:48:31 10° NNE visible
11 Jun 8.3 02:54:28 36° S 03:00:17 64° ESE 03:12:19 10° NNE visible
11 Jun 8.9 05:02:32 10° WSW 05:13:24 35° NW 05:24:15 10° NNE visible
12 Jun 8.6 02:19:54 36° SSE 02:24:28 48° ESE 02:35:56 10° NE visible
12 Jun 8.6 04:27:40 17° WSW 04:36:54 46° NW 04:48:29 10° NNE visible
13 Jun 8.9 01:45:18 31° SE 01:48:44 36° ESE 01:59:16 10° NE visible
13 Jun 8.4 03:53:04 27° SW 04:00:34 59° WNW 04:12:38 10° NNE visible
